Content
SEND FEEDBACK

Daily
Averages
Monthly
Summary
Turkmenistan

ASHGABAT, TURKMENISTAN


Home > Asia > Turkmenistan
Elevation: 775 feet     Latitude: 37 58N     Longitude: 058 20E

WEATHER
 
SELECT A DAY
Number of Records: 181,150;   Date Range: 3/15/97 - 10/20/14
 
SHARE

PRINT THIS DATA

[ ← Previous Day ]
WEATHER ALMANAC - SEPTEMBER 25, 2013
[ Next Day → ]
[ °C ]   °F
Weather ElementAverageHighLow
Temperature82.4 °F91.4 °F (3:00 pm)71.6 °F (11:30 pm)
Dewpoint55.9 °F61 °F (8:00 pm)53.6 °F (2:00 pm)
Humidity39 %64 % (11:30 pm)23 % (2:00 pm)
Barometer29.69 in29.83 in (11:30 pm)29.64 in (8:00 am)
Wind Speed10.5 mph26.8 mph (11:30 pm)
Wind Gust49.2 mph (11:30 pm)
Weather ElementAverage
Visibility5.9 mi
Wind DirectionWSW (252.9 °)

Weather ElementTotal
Precipitation---
Cooling Degree Days16.5 (Base 65)
Growing Degree Days31.5 (Base 50)
Averaged from 35 records on September 25, 2013
WEATHER CONDITIONS BREAKOUT
WIND DIRECTION BREAKOUT
WEATHER BY HOUR - SEPTEMBER 25, 2013
[ °C ]   °F
Local TimeTemperatureDewpointHumidityBarometerVisibilityWind DirectionWind SpeedGust SpeedPrecipitationEventsConditions
1:00 AM75.2 °F57.2 °F53 %29.65 in6.2 miCalmClear
2:00 AM77.0 °F57.0 °F39 %29.66 in6.0 miWNW (290°)13.4 mph
2:00 AM78.8 °F55.4 °F44 %29.68 in6.2 miWNW (290°)11.2 mphClear
3:00 AM77.0 °F55.4 °F47 %29.68 in6.2 miWSW (250°)6.7 mphClear
4:00 AM75.2 °F55.4 °F50 %29.65 in5.0 miWSW (240°)6.7 mphClear
5:00 AM75.2 °F55.4 °F50 %29.65 in6.2 miSSE (160°)4.5 mphClear
5:00 AM74.0 °F57.0 °F45 %29.65 in6.0 miSSE (150°)4.5 mph
6:00 AM75.2 °F55.4 °F50 %29.65 in6.2 miSE (130°)6.7 mphClear
7:00 AM73.4 °F55.4 °F53 %29.65 in6.2 miSE (130°)6.7 mphClear
8:00 AM77.0 °F55.4 °F47 %29.65 in6.2 miCalmClear
8:00 AM75.0 °F58.0 °F45 %29.64 in6.0 miCalm
9:00 AM78.8 °F59.0 °F51 %29.68 in6.2 miNW (310°)8.9 mphClear
10:00 AM80.6 °F57.2 °F45 %29.68 in6.2 miNW (310°)13.4 mphClear
11:00 AM81.0 °F57.0 °F33 %29.68 in6.0 miWNW (300°)13.4 mph
11:00 AM84.2 °F57.2 °F40 %29.71 in6.2 miNW (310°)13.4 mphClear
12:00 PM86.0 °F55.4 °F35 %29.71 in6.2 miNW (310°)11.2 mphClear
1:00 PM87.8 °F55.4 °F33 %29.68 in6.2 miNW (310°)8.9 mphClear
2:00 PM89.6 °F53.6 °F29 %29.68 in6.2 miWNW (300°)11.2 mphClear
2:00 PM89.0 °F56.0 °F23 %29.66 in6.0 miWNW (300°)11.2 mph
3:00 PM91.4 °F53.6 °F28 %29.68 in6.2 miWNW (290°)11.2 mphClear
4:00 PM91.4 °F53.6 °F28 %29.65 in6.2 miWNW (290°)11.2 mphClear
5:00 PM90.0 °F57.0 °F23 %29.64 in6.0 miWNW (300°)11.2 mphScattered Clouds
5:00 PM91.4 °F53.6 °F28 %29.68 in6.2 miWNW (290°)11.2 mphPartly Cloudy
5:30 PM89.6 °F53.6 °F29 %29.68 in6.2 miWNW (290°)11.2 mphScattered Clouds
6:00 PM89.6 °F53.6 °F29 %29.68 in6.2 miWest (280°)11.2 mphScattered Clouds
6:30 PM89.6 °F53.6 °F29 %29.68 in6.2 miWest (270°)11.2 mphMostly Cloudy
7:00 PM87.8 °F53.6 °F31 %29.71 in6.2 miWest (270°)11.2 mphMostly Cloudy
8:00 PM85.0 °F61.0 °F34 %29.69 in6.0 miWest (260°)6.7 mphPartly Cloudy
8:00 PM86.0 °F53.6 °F33 %29.71 in6.2 miWest (260°)6.7 mphMostly Cloudy
9:00 PM86.0 °F53.6 °F33 %29.74 in6.2 miWest (260°)8.9 mphOvercast
10:00 PM84.2 °F57.2 °F40 %29.74 in6.2 miWNW (290°)20.1 mphOvercast
10:30 PM80.6 °F55.4 °F42 %29.77 in4.3 miWNW (300°)20.1 mph33.6 mphOvercast
11:00 PM80.0 °F58.0 °F36 %29.76 in6.0 miWest (280°)17.9 mphRain-ThunderstormThunderstorms and Rain
11:00 PM80.6 °F57.2 °F45 %29.80 in6.2 miWest (280°)17.9 mphRain-ThunderstormLight Thunderstorms and Rain
11:30 PM71.6 °F59.0 °F64 %29.83 in1.1 miWNW (300°)26.8 mph49.2 mphRain-ThunderstormLight Thunderstorms and Rain
Hourly data recorded from UTAA, located miles away from Ashgabat, Turkmenistan







STORIES FROM OUR PARTNERS